Time,TemperatureF,DewpointF,PressureIn,WindDirection,WindDirectionDegrees,WindSpeedMPH,WindSpeedGustMPH,Humidity,HourlyPrecipIn,Conditions,Clouds,dailyrainin,SoftwareType,DateUTC
2013-06-06 00:01:00,69.4,59.6,30.03,SE,129,0.0,1.0,71,0.00,,---,0.00,VWS V14.01,2013-06-06 04:01:00,
2013-06-06 00:05:00,69.2,59.4,30.03,SE,130,0.0,0.0,71,0.00,,---,0.00,VWS V14.01,2013-06-06 04:05:00,
2013-06-06 00:10:00,69.1,59.3,30.03,SE,129,0.0,1.0,71,0.00,,---,0.00,VWS V14.01,2013-06-06 04:10:00,
2013-06-06 00:15:00,69.0,59.2,30.03,SE,130,0.0,1.0,71,0.00,,---,0.00,VWS V14.01,2013-06-06 04:15:00,
2013-06-06 00:20:00,68.9,59.1,30.02,SE,129,0.0,1.0,71,0.00,,---,0.00,VWS V14.01,2013-06-06 04:20:00,
2013-06-06 00:25:00,68.8,59.4,30.03,SE,130,0.0,1.0,72,0.00,,---,0.00,VWS V14.01,2013-06-06 04:25:00,
2013-06-06 00:30:00,68.7,59.3,30.02,SE,129,0.0,1.0,72,0.00,,---,0.00,VWS V14.01,2013-06-06 04:30:00,
2013-06-06 00:35:00,68.5,59.5,30.03,SE,129,0.0,0.0,73,0.00,,---,0.00,VWS V14.01,2013-06-06 04:35:00,
2013-06-06 00:40:00,68.3,59.3,30.02,SE,129,0.0,1.0,73,0.00,,---,0.00,VWS V14.01,2013-06-06 04:40:00,
2013-06-06 00:45:00,68.2,59.2,30.02,SE,129,0.0,1.0,73,0.00,,---,0.00,VWS V14.01,2013-06-06 04:45:00,
2013-06-06 00:50:00,68.1,59.1,30.02,SE,129,0.0,1.0,73,0.00,,---,0.00,VWS V14.01,2013-06-06 04:50:00,
2013-06-06 00:55:00,68.1,59.1,30.02,SE,130,0.0,1.0,73,0.00,,---,0.00,VWS V14.01,2013-06-06 04:55:00,
2013-06-06 01:00:00,67.9,58.9,30.02,SE,129,0.0,1.0,73,0.00,,---,0.00,VWS V14.01,2013-06-06 05:00:00,
2013-06-06 01:05:00,67.8,59.2,30.02,SE,129,0.0,1.0,74,0.00,,---,0.00,VWS V14.01,2013-06-06 05:05:00,
2013-06-06 01:11:00,67.6,59.4,30.02,SE,129,0.0,1.0,75,0.00,,---,0.00,VWS V14.01,2013-06-06 05:11:00,
2013-06-06 01:16:00,67.4,59.2,30.01,SE,131,1.0,1.0,75,0.00,,---,0.00,VWS V14.01,2013-06-06 05:16:00,
2013-06-06 01:21:00,67.3,59.1,30.01,SE,131,0.0,1.0,75,0.00,,---,0.00,VWS V14.01,2013-06-06 05:21:00,
2013-06-06 01:26:00,67.2,59.4,30.01,SE,131,0.0,1.0,76,0.00,,---,0.00,VWS V14.01,2013-06-06 05:26:00,
2013-06-06 01:31:00,67.0,59.2,30.01,SE,131,0.0,0.0,76,0.00,,---,0.00,VWS V14.01,2013-06-06 05:31:00,
2013-06-06 01:36:00,66.7,59.3,30.01,SE,131,0.0,0.0,77,0.00,,---,0.00,VWS V14.01,2013-06-06 05:36:00,
2013-06-06 01:41:00,66.6,59.2,30.01,SE,131,0.0,1.0,77,0.00,,---,0.00,VWS V14.01,2013-06-06 05:41:00,
2013-06-06 01:47:00,66.6,59.2,30.00,SE,131,0.0,1.0,77,0.00,,---,0.00,VWS V14.01,2013-06-06 05:47:00,
2013-06-06 01:52:00,66.6,59.5,30.00,ESE,121,0.0,1.0,78,0.00,,---,0.00,VWS V14.01,2013-06-06 05:52:00,
2013-06-06 01:57:00,66.4,59.3,30.00,ESE,122,0.0,1.0,78,0.00,,---,0.00,VWS V14.01,2013-06-06 05:57:00,
2013-06-06 02:02:00,66.3,59.6,30.00,ESE,122,0.0,0.0,79,0.00,,---,0.00,VWS V14.01,2013-06-06 06:02:00,
2013-06-06 02:07:00,66.2,59.5,30.00,ESE,122,0.0,0.0,79,0.00,,---,0.00,VWS V14.01,2013-06-06 06:07:00,
2013-06-06 02:12:00,66.1,59.8,30.00,ESE,122,0.0,0.0,80,0.00,,---,0.00,VWS V14.01,2013-06-06 06:12:00,
2013-06-06 02:17:00,66.0,59.3,29.99,ESE,122,0.0,0.0,79,0.00,,---,0.00,VWS V14.01,2013-06-06 06:17:00,
2013-06-06 02:22:00,66.1,59.8,29.99,ESE,121,0.0,1.0,80,0.00,,---,0.00,VWS V14.01,2013-06-06 06:22:00,
2013-06-06 02:27:00,66.1,59.8,29.99,SE,132,0.0,1.0,80,0.00,,---,0.00,VWS V14.01,2013-06-06 06:27:00,
2013-06-06 02:32:00,66.0,59.7,29.99,SE,132,0.0,0.0,80,0.00,,---,0.00,VWS V14.01,2013-06-06 06:32:00,
2013-06-06 02:37:00,66.0,59.7,29.99,SE,131,0.0,1.0,80,0.00,,---,0.00,VWS V14.01,2013-06-06 06:37:00,
2013-06-06 02:42:00,66.0,60.0,29.98,SE,131,0.0,1.0,81,0.00,,---,0.00,VWS V14.01,2013-06-06 06:42:00,
2013-06-06 02:47:00,66.1,59.8,29.99,SE,134,0.0,1.0,80,0.00,,---,0.00,VWS V14.01,2013-06-06 06:47:00,
2013-06-06 02:52:00,66.2,59.9,29.99,SE,134,0.0,2.0,80,0.00,,---,0.00,VWS V14.01,2013-06-06 06:52:00,
2013-06-06 02:58:00,66.2,60.2,29.98,SE,134,0.0,2.0,81,0.00,,---,0.00,VWS V14.01,2013-06-06 06:58:00,
2013-06-06 03:03:00,66.2,59.9,29.98,SE,134,0.0,1.0,80,0.00,,---,0.00,VWS V14.01,2013-06-06 07:03:00,
2013-06-06 03:08:00,66.2,60.2,29.98,SE,134,0.0,1.0,81,0.00,,---,0.00,VWS V14.01,2013-06-06 07:08:00,
2013-06-06 03:13:00,66.2,60.2,29.98,SE,134,0.0,1.0,81,0.00,,---,0.00,VWS V14.01,2013-06-06 07:13:00,
2013-06-06 03:18:00,66.2,60.2,29.98,SE,134,0.0,1.0,81,0.00,,---,0.00,VWS V14.01,2013-06-06 07:18:00,
2013-06-06 03:23:00,66.2,60.5,29.98,SE,134,0.0,1.0,82,0.00,,---,0.00,VWS V14.01,2013-06-06 07:23:00,
2013-06-06 03:28:00,66.2,60.5,29.97,SE,134,0.0,1.0,82,0.00,,---,0.00,VWS V14.01,2013-06-06 07:28:00,
2013-06-06 03:33:00,66.2,60.5,29.97,SE,134,0.0,0.0,82,0.00,,---,0.00,VWS V14.01,2013-06-06 07:33:00,
2013-06-06 03:38:00,66.2,60.5,29.97,SE,134,0.0,1.0,82,0.00,,---,0.00,VWS V14.01,2013-06-06 07:38:00,
2013-06-06 03:43:00,66.2,60.5,29.97,SE,134,0.0,1.0,82,0.00,,---,0.00,VWS V14.01,2013-06-06 07:43:00,
2013-06-06 03:48:00,66.3,60.7,29.97,SE,134,0.0,1.0,82,0.00,,---,0.00,VWS V14.01,2013-06-06 07:48:00,
2013-06-06 03:54:00,66.3,60.7,29.97,SE,132,1.0,1.0,82,0.00,,---,0.00,VWS V14.01,2013-06-06 07:54:00,
2013-06-06 03:59:00,66.4,60.7,29.97,SE,134,0.0,1.0,82,0.00,,---,0.00,VWS V14.01,2013-06-06 07:59:00,
2013-06-06 04:04:00,66.5,60.8,29.97,SE,134,0.0,1.0,82,0.00,,---,0.00,VWS V14.01,2013-06-06 08:04:00,
2013-06-06 04:09:00,66.5,60.8,29.97,SE,134,0.0,1.0,82,0.00,,---,0.00,VWS V14.01,2013-06-06 08:09:00,
2013-06-06 04:14:00,66.5,61.2,29.97,SE,134,0.0,1.0,83,0.00,,---,0.00,VWS V14.01,2013-06-06 08:14:00,
2013-06-06 04:19:00,66.5,61.2,29.96,SE,132,0.0,1.0,83,0.00,,---,0.00,VWS V14.01,2013-06-06 08:19:00,
2013-06-06 04:24:00,66.6,61.3,29.96,SE,132,0.0,1.0,83,0.00,,---,0.00,VWS V14.01,2013-06-06 08:24:00,
2013-06-06 04:29:00,66.6,61.3,29.96,SE,132,0.0,1.0,83,0.00,,---,0.00,VWS V14.01,2013-06-06 08:29:00,
2013-06-06 04:34:00,66.6,61.3,29.96,SE,132,0.0,0.0,83,0.00,,---,0.00,VWS V14.01,2013-06-06 08:34:00,
2013-06-06 04:39:00,66.6,61.3,29.96,SE,132,0.0,1.0,83,0.00,,---,0.00,VWS V14.01,2013-06-06 08:39:00,
2013-06-06 04:44:00,66.7,61.7,29.95,SE,132,0.0,1.0,84,0.00,,---,0.00,VWS V14.01,2013-06-06 08:44:00,
2013-06-06 04:49:00,66.7,61.7,29.95,SE,132,0.0,1.0,84,0.00,,---,0.00,VWS V14.01,2013-06-06 08:49:00,
2013-06-06 04:54:00,66.7,61.7,29.95,SE,132,0.0,1.0,84,0.00,,---,0.00,VWS V14.01,2013-06-06 08:54:00,
2013-06-06 04:59:00,66.8,61.8,29.95,SE,132,0.0,1.0,84,0.00,,---,0.00,VWS V14.01,2013-06-06 08:59:00,
2013-06-06 05:04:00,66.8,61.8,29.95,SE,134,1.0,1.0,84,0.00,,---,0.00,VWS V14.01,2013-06-06 09:04:00,
2013-06-06 05:09:00,66.9,61.9,29.95,SE,124,0.0,1.0,84,0.00,,---,0.00,VWS V14.01,2013-06-06 09:09:00,
2013-06-06 05:15:00,66.9,61.9,29.94,SE,129,0.0,1.0,84,0.00,,---,0.00,VWS V14.01,2013-06-06 09:15:00,
2013-06-06 05:20:00,66.9,61.9,29.94,SE,130,0.0,2.0,84,0.00,,---,0.00,VWS V14.01,2013-06-06 09:20:00,
2013-06-06 05:25:00,66.9,61.9,29.94,SE,131,0.0,2.0,84,0.00,,---,0.00,VWS V14.01,2013-06-06 09:25:00,
2013-06-06 05:30:00,66.9,61.9,29.94,SE,139,0.0,2.0,84,0.00,,---,0.00,VWS V14.01,2013-06-06 09:30:00,
2013-06-06 05:35:00,66.8,62.2,29.94,SE,140,0.0,1.0,85,0.00,,---,0.00,VWS V14.01,2013-06-06 09:35:00,
2013-06-06 05:40:00,66.6,62.3,29.94,SE,139,0.0,1.0,86,0.00,,---,0.00,VWS V14.01,2013-06-06 09:40:00,
2013-06-06 05:45:00,66.4,62.4,29.94,SE,140,0.0,1.0,87,0.00,,---,0.00,VWS V14.01,2013-06-06 09:45:00,
2013-06-06 05:50:00,66.3,62.3,29.94,SE,139,0.0,1.0,87,0.00,,---,0.00,VWS V14.01,2013-06-06 09:50:00,
2013-06-06 05:55:00,66.2,62.2,29.94,SE,139,0.0,1.0,87,0.00,,---,0.00,VWS V14.01,2013-06-06 09:55:00,
2013-06-06 06:00:00,66.2,62.2,29.93,SE,139,0.0,1.0,87,0.00,,---,0.00,VWS V14.01,2013-06-06 10:00:00,
2013-06-06 06:05:00,66.1,62.5,29.93,SE,140,0.0,0.0,88,0.00,,---,0.00,VWS V14.01,2013-06-06 10:05:00,
2013-06-06 06:11:00,66.2,62.5,29.93,SE,140,0.0,0.0,88,0.00,,---,0.00,VWS V14.01,2013-06-06 10:11:00,
2013-06-06 06:16:00,66.2,62.5,29.93,SE,139,0.0,0.0,88,0.00,,---,0.00,VWS V14.01,2013-06-06 10:16:00,
2013-06-06 06:21:00,66.2,62.5,29.93,SE,139,0.0,0.0,88,0.00,,---,0.00,VWS V14.01,2013-06-06 10:21:00,
2013-06-06 06:26:00,66.3,62.6,29.93,SE,136,1.0,1.0,88,0.00,,---,0.00,VWS V14.01,2013-06-06 10:26:00,
2013-06-06 06:31:00,66.3,62.6,29.93,SE,129,0.0,0.0,88,0.00,,---,0.00,VWS V14.01,2013-06-06 10:31:00,
2013-06-06 06:36:00,66.4,62.7,29.93,SE,129,0.0,0.0,88,0.00,,---,0.00,VWS V14.01,2013-06-06 10:36:00,
2013-06-06 06:41:00,66.4,62.7,29.93,SE,130,0.0,0.0,88,0.00,,---,0.00,VWS V14.01,2013-06-06 10:41:00,
2013-06-06 06:46:00,66.4,62.7,29.94,SE,130,0.0,0.0,88,0.00,,---,0.00,VWS V14.01,2013-06-06 10:46:00,
2013-06-06 06:51:00,66.4,62.7,29.94,SE,129,0.0,0.0,88,0.00,,---,0.00,VWS V14.01,2013-06-06 10:51:00,
2013-06-06 06:56:00,66.5,62.8,29.94,SE,129,0.0,0.0,88,0.00,,---,0.00,VWS V14.01,2013-06-06 10:56:00,
2013-06-06 07:01:00,66.6,63.3,29.94,SE,130,0.0,0.0,89,0.00,,---,0.00,VWS V14.01,2013-06-06 11:01:00,
2013-06-06 07:06:00,66.6,63.3,29.94,SE,130,0.0,0.0,89,0.00,,---,0.00,VWS V14.01,2013-06-06 11:06:00,
2013-06-06 07:12:00,66.6,63.3,29.94,SSE,147,1.0,1.0,89,0.00,,---,0.00,VWS V14.01,2013-06-06 11:12:00,
2013-06-06 07:17:00,66.7,63.4,29.94,SE,127,0.0,2.0,89,0.00,,---,0.00,VWS V14.01,2013-06-06 11:17:00,
2013-06-06 07:22:00,66.9,63.6,29.94,SE,128,0.0,2.0,89,0.00,,---,0.00,VWS V14.01,2013-06-06 11:22:00,
2013-06-06 07:27:00,67.0,63.7,29.94,SE,139,0.0,2.0,89,0.00,,---,0.00,VWS V14.01,2013-06-06 11:27:00,
2013-06-06 07:32:00,67.1,63.8,29.94,SE,134,0.0,1.0,89,0.00,,---,0.00,VWS V14.01,2013-06-06 11:32:00,
2013-06-06 07:37:00,67.2,63.8,29.94,SE,138,0.0,1.0,89,0.00,,---,0.00,VWS V14.01,2013-06-06 11:37:00,
2013-06-06 07:42:00,67.3,64.0,29.94,SE,132,0.0,1.0,89,0.00,,---,0.00,VWS V14.01,2013-06-06 11:42:00,
2013-06-06 07:47:00,67.4,64.1,29.94,ESE,118,0.0,1.0,89,0.00,,---,0.00,VWS V14.01,2013-06-06 11:47:00,
2013-06-06 07:52:00,67.4,64.1,29.94,SE,134,0.0,1.0,89,0.00,,---,0.00,VWS V14.01,2013-06-06 11:52:00,
2013-06-06 07:57:00,67.4,64.4,29.94,SE,132,0.0,1.0,90,0.00,,---,0.00,VWS V14.01,2013-06-06 11:57:00,
2013-06-06 08:02:00,67.4,64.4,29.93,ESE,118,1.0,1.0,90,0.00,,---,0.00,VWS V14.01,2013-06-06 12:02:00,
2013-06-06 08:08:00,67.5,64.5,29.93,SSE,148,0.0,1.0,90,0.00,,---,0.00,VWS V14.01,2013-06-06 12:08:00,
2013-06-06 08:13:00,67.6,64.6,29.93,SSE,148,0.0,1.0,90,0.00,,---,0.00,VWS V14.01,2013-06-06 12:13:00,
2013-06-06 08:18:00,67.8,64.8,29.94,SSE,148,0.0,1.0,90,0.00,,---,0.00,VWS V14.01,2013-06-06 12:18:00,
2013-06-06 08:23:00,68.0,65.0,29.93,SE,137,0.0,1.0,90,0.00,,---,0.00,VWS V14.01,2013-06-06 12:23:00,
2013-06-06 08:28:00,68.3,65.3,29.94,SE,132,0.0,1.0,90,0.00,,---,0.00,VWS V14.01,2013-06-06 12:28:00,
2013-06-06 08:33:00,68.6,65.2,29.94,ESE,112,0.0,2.0,89,0.00,,---,0.00,VWS V14.01,2013-06-06 12:33:00,
2013-06-06 08:38:00,68.8,65.4,29.93,ESE,120,1.0,3.0,89,0.00,,---,0.00,VWS V14.01,2013-06-06 12:38:00,
2013-06-06 08:43:00,69.0,65.6,29.94,ESE,103,0.0,3.0,89,0.00,,---,0.00,VWS V14.01,2013-06-06 12:43:00,
2013-06-06 08:48:00,69.2,65.8,29.94,SE,137,0.0,3.0,89,0.00,,---,0.00,VWS V14.01,2013-06-06 12:48:00,
2013-06-06 08:53:00,69.4,66.0,29.93,SE,136,2.0,3.0,89,0.00,,---,0.00,VWS V14.01,2013-06-06 12:53:00,
2013-06-06 08:58:00,69.4,65.7,29.93,SE,132,1.0,3.0,88,0.00,,---,0.00,VWS V14.01,2013-06-06 12:58:00,
2013-06-06 09:04:00,69.5,65.8,29.93,ESE,118,1.0,4.0,88,0.00,,---,0.00,VWS V14.01,2013-06-06 13:04:00,
2013-06-06 09:09:00,69.6,65.9,29.93,East,96,1.0,4.0,88,0.00,,---,0.00,VWS V14.01,2013-06-06 13:09:00,
2013-06-06 09:14:00,69.8,66.1,29.93,SE,127,0.0,4.0,88,0.00,,---,0.00,VWS V14.01,2013-06-06 13:14:00,
2013-06-06 09:19:00,70.0,66.6,29.93,SE,127,1.0,4.0,89,0.00,,---,0.00,VWS V14.01,2013-06-06 13:19:00,
2013-06-06 09:24:00,70.2,66.5,29.93,SE,145,2.0,4.0,88,0.00,,---,0.00,VWS V14.01,2013-06-06 13:24:00,
2013-06-06 09:29:00,70.6,66.9,29.93,ESE,106,0.0,4.0,88,0.00,,---,0.00,VWS V14.01,2013-06-06 13:29:00,
2013-06-06 09:34:00,70.8,67.1,29.93,SSE,159,0.0,2.0,88,0.00,,---,0.00,VWS V14.01,2013-06-06 13:34:00,
2013-06-06 09:39:00,71.0,66.9,29.93,ESE,108,0.0,3.0,87,0.00,,---,0.00,VWS V14.01,2013-06-06 13:39:00,
2013-06-06 09:44:00,71.3,67.6,29.93,SE,141,0.0,3.0,88,0.00,,---,0.00,VWS V14.01,2013-06-06 13:44:00,
2013-06-06 09:49:00,71.5,67.4,29.93,SE,131,0.0,3.0,87,0.00,,---,0.00,VWS V14.01,2013-06-06 13:49:00,
2013-06-06 09:54:00,71.6,67.5,29.93,East,81,0.0,3.0,87,0.00,,---,0.00,VWS V14.01,2013-06-06 13:54:00,
2013-06-06 10:00:00,71.8,67.7,29.92,SE,136,1.0,3.0,87,0.00,,---,0.00,VWS V14.01,2013-06-06 14:00:00,
2013-06-06 10:05:00,71.9,67.8,29.92,ESE,116,0.0,2.0,87,0.00,,---,0.00,VWS V14.01,2013-06-06 14:05:00,
2013-06-06 10:10:00,71.9,67.8,29.92,SE,128,1.0,2.0,87,0.00,,---,0.00,VWS V14.01,2013-06-06 14:10:00,
2013-06-06 10:15:00,72.1,68.0,29.92,East,83,1.0,2.0,87,0.00,,---,0.00,VWS V14.01,2013-06-06 14:15:00,
2013-06-06 10:20:00,72.3,68.2,29.92,SE,135,3.0,4.0,87,0.00,,---,0.00,VWS V14.01,2013-06-06 14:20:00,
2013-06-06 10:25:00,72.4,68.0,29.93,SE,137,2.0,4.0,86,0.00,,---,0.00,VWS V14.01,2013-06-06 14:25:00,
2013-06-06 10:30:00,72.5,68.1,29.92,ESE,103,1.0,4.0,86,0.00,,---,0.00,VWS V14.01,2013-06-06 14:30:00,
2013-06-06 10:36:00,72.6,68.2,29.92,SE,132,2.0,3.0,86,0.00,,---,0.00,VWS V14.01,2013-06-06 14:36:00,
2013-06-06 10:41:00,72.6,68.2,29.92,SSE,160,2.0,3.0,86,0.00,,---,0.00,VWS V14.01,2013-06-06 14:41:00,
2013-06-06 10:46:00,72.6,68.2,29.92,SE,141,1.0,3.0,86,0.00,,---,0.00,VWS V14.01,2013-06-06 14:46:00,
2013-06-06 10:51:00,72.8,68.4,29.92,ESE,120,2.0,3.0,86,0.00,,---,0.00,VWS V14.01,2013-06-06 14:51:00,
2013-06-06 10:56:00,73.0,68.6,29.92,SE,132,0.0,3.0,86,0.00,,---,0.00,VWS V14.01,2013-06-06 14:56:00,
2013-06-06 11:01:00,73.0,68.6,29.92,SSE,160,1.0,3.0,86,0.00,,---,0.00,VWS V14.01,2013-06-06 15:01:00,
2013-06-06 11:06:00,73.1,68.3,29.92,SSW,204,0.0,2.0,85,0.00,,---,0.00,VWS V14.01,2013-06-06 15:06:00,
2013-06-06 11:11:00,73.2,68.8,29.92,ESE,114,1.0,2.0,86,0.00,,---,0.00,VWS V14.01,2013-06-06 15:11:00,
2013-06-06 11:16:00,73.3,68.9,29.92,ESE,118,1.0,2.0,86,0.00,,---,0.00,VWS V14.01,2013-06-06 15:16:00,
2013-06-06 11:21:00,73.3,68.5,29.92,ESE,121,0.0,3.0,85,0.00,,---,0.00,VWS V14.01,2013-06-06 15:21:00,
2013-06-06 11:26:00,73.3,68.9,29.92,SW,215,2.0,3.0,86,0.00,,---,0.00,VWS V14.01,2013-06-06 15:26:00,
2013-06-06 11:31:00,73.2,68.8,29.92,East,96,1.0,2.0,86,0.00,,---,0.00,VWS V14.01,2013-06-06 15:31:00,
2013-06-06 11:36:00,73.1,69.0,29.92,ESE,111,0.0,3.0,87,0.00,,---,0.00,VWS V14.01,2013-06-06 15:36:00,
2013-06-06 11:42:00,73.1,69.3,29.92,ESE,116,0.0,3.0,88,0.00,,---,0.00,VWS V14.01,2013-06-06 15:42:00,
2013-06-06 11:47:00,73.0,69.6,29.92,ESE,111,1.0,3.0,89,0.00,,---,0.00,VWS V14.01,2013-06-06 15:47:00,
2013-06-06 11:52:00,72.9,69.1,29.91,SE,128,1.0,3.0,88,0.00,,---,0.00,VWS V14.01,2013-06-06 15:52:00,
2013-06-06 11:57:00,73.1,69.3,29.91,SSE,163,1.0,3.0,88,0.00,,---,0.00,VWS V14.01,2013-06-06 15:57:00,
2013-06-06 12:02:00,73.2,69.4,29.91,ESE,102,1.0,1.0,88,0.00,,---,0.00,VWS V14.01,2013-06-06 16:02:00,
2013-06-06 12:07:00,73.2,69.1,29.91,ESE,102,1.0,3.0,87,0.00,,---,0.00,VWS V14.01,2013-06-06 16:07:00,
2013-06-06 12:12:00,73.2,69.4,29.91,East,84,1.0,3.0,88,0.00,,---,0.00,VWS V14.01,2013-06-06 16:12:00,
2013-06-06 12:17:00,73.4,69.6,29.90,ENE,69,1.0,3.0,88,0.00,,---,0.00,VWS V14.01,2013-06-06 16:17:00,
2013-06-06 12:22:00,73.7,69.6,29.90,SE,132,1.0,3.0,87,0.00,,---,0.00,VWS V14.01,2013-06-06 16:22:00,
2013-06-06 12:27:00,74.0,69.6,29.90,East,101,1.0,3.0,86,0.00,,---,0.00,VWS V14.01,2013-06-06 16:27:00,
2013-06-06 12:32:00,74.3,69.8,29.90,SSE,152,1.0,5.0,86,0.00,,---,0.00,VWS V14.01,2013-06-06 16:32:00,
2013-06-06 12:38:00,74.2,69.8,29.90,SE,138,0.0,5.0,86,0.00,,---,0.00,VWS V14.01,2013-06-06 16:38:00,
2013-06-06 12:43:00,74.3,70.2,29.90,SE,140,2.0,5.0,87,0.00,,---,0.00,VWS V14.01,2013-06-06 16:43:00,
2013-06-06 12:48:00,74.4,69.9,29.89,ESE,102,2.0,5.0,86,0.00,,---,0.00,VWS V14.01,2013-06-06 16:48:00,
2013-06-06 12:53:00,74.4,69.9,29.89,SE,132,1.0,5.0,86,0.00,,---,0.00,VWS V14.01,2013-06-06 16:53:00,
2013-06-06 12:58:00,74.1,70.3,29.89,SE,134,0.0,5.0,88,0.01,,---,0.01,VWS V14.01,2013-06-06 16:58:00,
2013-06-06 13:03:00,73.9,70.8,29.89,SSE,148,0.0,0.0,90,0.01,,---,0.01,VWS V14.01,2013-06-06 17:03:00,
2013-06-06 13:08:00,73.8,71.0,29.88,SSE,148,0.0,0.0,91,0.01,,---,0.01,VWS V14.01,2013-06-06 17:08:00,
2013-06-06 13:13:00,73.5,71.0,29.88,ESE,122,0.0,1.0,92,0.01,,---,0.01,VWS V14.01,2013-06-06 17:13:00,
2013-06-06 13:18:00,73.4,70.9,29.88,ESE,122,0.0,1.0,92,0.02,,---,0.02,VWS V14.01,2013-06-06 17:18:00,
2013-06-06 13:23:00,73.4,70.9,29.88,ESE,122,0.0,1.0,92,0.03,,---,0.03,VWS V14.01,2013-06-06 17:23:00,
2013-06-06 13:29:00,73.4,71.3,29.87,ESE,122,0.0,1.0,93,0.04,,---,0.04,VWS V14.01,2013-06-06 17:29:00,
2013-06-06 13:34:00,73.5,71.4,29.87,ESE,122,0.0,0.0,93,0.07,,---,0.07,VWS V14.01,2013-06-06 17:34:00,
2013-06-06 13:39:00,73.6,71.8,29.87,ESE,122,0.0,0.0,94,0.12,,---,0.12,VWS V14.01,2013-06-06 17:39:00,
2013-06-06 13:44:00,73.5,71.7,29.87,ESE,122,0.0,0.0,94,0.21,,---,0.21,VWS V14.01,2013-06-06 17:44:00,
2013-06-06 13:49:00,73.4,71.6,29.87,ESE,122,0.0,0.0,94,0.24,,---,0.24,VWS V14.01,2013-06-06 17:49:00,
2013-06-06 13:54:00,73.3,71.5,29.87,SE,124,0.0,1.0,94,0.25,,---,0.25,VWS V14.01,2013-06-06 17:54:00,
2013-06-06 13:59:00,73.1,71.3,29.86,SE,134,1.0,2.0,94,0.30,,---,0.30,VWS V14.01,2013-06-06 17:59:00,
2013-06-06 14:04:00,72.8,71.3,29.86,SSE,160,3.0,4.0,95,0.37,,---,0.38,VWS V14.01,2013-06-06 18:04:00,
2013-06-06 14:09:00,72.4,70.9,29.87,SSE,148,0.0,6.0,95,0.43,,---,0.44,VWS V14.01,2013-06-06 18:09:00,
2013-06-06 14:14:00,72.0,70.5,29.86,South,186,1.0,6.0,95,0.48,,---,0.49,VWS V14.01,2013-06-06 18:14:00,
2013-06-06 14:19:00,71.6,70.1,29.86,SE,138,0.0,6.0,95,0.48,,---,0.49,VWS V14.01,2013-06-06 18:19:00,
2013-06-06 14:24:00,71.6,70.4,29.86,SE,138,0.0,6.0,96,0.48,,---,0.49,VWS V14.01,2013-06-06 18:24:00,
2013-06-06 14:30:00,71.6,70.4,29.86,SSE,151,0.0,6.0,96,0.48,,---,0.49,VWS V14.01,2013-06-06 18:30:00,
2013-06-06 14:35:00,71.7,70.8,29.86,SE,134,0.0,2.0,97,0.45,,---,0.50,VWS V14.01,2013-06-06 18:35:00,
2013-06-06 14:40:00,71.9,71.0,29.85,SE,139,2.0,2.0,97,0.45,,---,0.50,VWS V14.01,2013-06-06 18:40:00,
2013-06-06 14:45:00,72.1,71.2,29.85,SE,136,0.0,2.0,97,0.45,,---,0.50,VWS V14.01,2013-06-06 18:45:00,
2013-06-06 14:50:00,72.4,71.5,29.85,South,188,0.0,2.0,97,0.45,,---,0.50,VWS V14.01,2013-06-06 18:50:00,
2013-06-06 14:55:00,72.6,71.7,29.85,SSE,152,1.0,2.0,97,0.45,,---,0.50,VWS V14.01,2013-06-06 18:55:00,
2013-06-06 15:00:00,72.8,71.9,29.84,SSW,205,0.0,2.0,97,0.45,,---,0.50,VWS V14.01,2013-06-06 19:00:00,
2013-06-06 15:05:00,72.9,72.0,29.84,SE,127,0.0,2.0,97,0.18,,---,0.50,VWS V14.01,2013-06-06 19:05:00,
2013-06-06 15:10:00,73.1,72.2,29.84,WSW,243,1.0,3.0,97,0.18,,---,0.50,VWS V14.01,2013-06-06 19:10:00,
2013-06-06 15:16:00,73.3,72.4,29.84,SE,139,2.0,3.0,97,0.18,,---,0.50,VWS V14.01,2013-06-06 19:16:00,
2013-06-06 15:21:00,73.5,72.6,29.84,SSE,157,2.0,4.0,97,0.18,,---,0.50,VWS V14.01,2013-06-06 19:21:00,
2013-06-06 15:26:00,73.5,72.3,29.83,SE,138,1.0,4.0,96,0.18,,---,0.50,VWS V14.01,2013-06-06 19:26:00,
2013-06-06 15:31:00,73.6,72.4,29.83,SW,217,1.0,4.0,96,0.18,,---,0.50,VWS V14.01,2013-06-06 19:31:00,
2013-06-06 15:34:00,73.6,72.4,29.83,SE,137,0.0,3.0,96,0.01,,---,0.50,VWS V14.01,2013-06-06 19:34:00,
2013-06-06 15:39:00,73.7,72.2,29.83,SSE,159,2.0,3.0,95,0.01,,---,0.50,VWS V14.01,2013-06-06 19:39:00,
2013-06-06 15:44:00,73.7,72.2,29.83,SSE,152,1.0,3.0,95,0.01,,---,0.50,VWS V14.01,2013-06-06 19:44:00,
2013-06-06 15:49:00,73.8,72.3,29.83,SE,130,1.0,3.0,95,0.01,,---,0.50,VWS V14.01,2013-06-06 19:49:00,
2013-06-06 15:54:00,73.8,72.3,29.82,SE,125,1.0,3.0,95,0.01,,---,0.50,VWS V14.01,2013-06-06 19:54:00,
2013-06-06 15:59:00,74.0,72.5,29.82,South,191,1.0,3.0,95,0.01,,---,0.50,VWS V14.01,2013-06-06 19:59:00,
2013-06-06 16:04:00,74.0,72.5,29.82,SE,143,2.0,3.0,95,0.00,,---,0.50,VWS V14.01,2013-06-06 20:04:00,
2013-06-06 16:10:00,74.0,72.2,29.82,SSE,153,3.0,4.0,94,0.00,,---,0.50,VWS V14.01,2013-06-06 20:10:00,
2013-06-06 16:15:00,74.1,72.3,29.82,South,173,0.0,4.0,94,0.00,,---,0.50,VWS V14.01,2013-06-06 20:15:00,
2013-06-06 16:20:00,74.1,72.3,29.82,SSE,157,2.0,4.0,94,0.00,,---,0.50,VWS V14.01,2013-06-06 20:20:00,
2013-06-06 16:25:00,74.2,72.4,29.82,South,190,1.0,4.0,94,0.00,,---,0.50,VWS V14.01,2013-06-06 20:25:00,
2013-06-06 16:30:00,74.3,72.2,29.82,SE,134,1.0,4.0,93,0.00,,---,0.50,VWS V14.01,2013-06-06 20:30:00,
2013-06-06 16:35:00,74.5,72.3,29.82,SSE,152,2.0,3.0,93,0.00,,---,0.50,VWS V14.01,2013-06-06 20:35:00,
2013-06-06 16:40:00,74.6,72.4,29.82,South,173,1.0,3.0,93,0.00,,---,0.50,VWS V14.01,2013-06-06 20:40:00,
2013-06-06 16:45:00,74.6,72.4,29.82,SE,128,2.0,3.0,93,0.00,,---,0.50,VWS V14.01,2013-06-06 20:45:00,
2013-06-06 16:50:00,74.5,72.3,29.81,SW,221,1.0,3.0,93,0.00,,---,0.50,VWS V14.01,2013-06-06 20:50:00,
2013-06-06 16:56:00,74.4,72.2,29.81,SE,135,1.0,3.0,93,0.00,,---,0.50,VWS V14.01,2013-06-06 20:56:00,
2013-06-06 17:01:00,74.5,72.3,29.82,SSE,155,2.0,4.0,93,0.00,,---,0.50,VWS V14.01,2013-06-06 21:01:00,
2013-06-06 17:06:00,74.5,72.3,29.82,SE,137,1.0,3.0,93,0.00,,---,0.50,VWS V14.01,2013-06-06 21:06:00,
2013-06-06 17:11:00,74.4,72.2,29.82,SSE,148,1.0,3.0,93,0.00,,---,0.50,VWS V14.01,2013-06-06 21:11:00,
2013-06-06 17:16:00,74.3,72.2,29.82,SE,139,1.0,3.0,93,0.00,,---,0.50,VWS V14.01,2013-06-06 21:16:00,
2013-06-06 17:21:00,74.2,72.1,29.82,SSW,212,1.0,3.0,93,0.01,,---,0.51,VWS V14.01,2013-06-06 21:21:00,
2013-06-06 17:26:00,73.9,72.1,29.82,SE,136,2.0,3.0,94,0.01,,---,0.51,VWS V14.01,2013-06-06 21:26:00,
2013-06-06 17:31:00,73.8,72.0,29.82,SE,141,2.0,2.0,94,0.02,,---,0.52,VWS V14.01,2013-06-06 21:31:00,
2013-06-06 17:36:00,73.6,72.1,29.82,SSW,194,2.0,3.0,95,0.02,,---,0.52,VWS V14.01,2013-06-06 21:36:00,
2013-06-06 17:41:00,73.3,71.5,29.82,SSE,152,1.0,3.0,94,0.04,,---,0.54,VWS V14.01,2013-06-06 21:41:00,
2013-06-06 17:47:00,73.0,71.5,29.82,SE,142,1.0,3.0,95,0.06,,---,0.56,VWS V14.01,2013-06-06 21:47:00,
2013-06-06 17:52:00,72.8,71.3,29.81,SSE,148,2.0,3.0,95,0.07,,---,0.57,VWS V14.01,2013-06-06 21:52:00,
2013-06-06 17:57:00,72.7,71.2,29.81,SSE,152,1.0,3.0,95,0.07,,---,0.57,VWS V14.01,2013-06-06 21:57:00,
2013-06-06 18:02:00,72.6,71.4,29.81,SE,139,1.0,1.0,96,0.07,,---,0.57,VWS V14.01,2013-06-06 22:02:00,
2013-06-06 18:07:00,72.5,71.3,29.81,SSW,195,1.0,3.0,96,0.08,,---,0.58,VWS V14.01,2013-06-06 22:07:00,
2013-06-06 18:12:00,72.4,71.2,29.81,SSE,152,0.0,4.0,96,0.09,,---,0.59,VWS V14.01,2013-06-06 22:12:00,
2013-06-06 18:17:00,72.3,71.1,29.81,SSW,210,1.0,4.0,96,0.09,,---,0.59,VWS V14.01,2013-06-06 22:17:00,
2013-06-06 18:22:00,72.2,71.3,29.81,SE,140,1.0,4.0,97,0.10,,---,0.60,VWS V14.01,2013-06-06 22:22:00,
2013-06-06 18:27:00,72.2,71.3,29.81,SE,142,1.0,4.0,97,0.13,,---,0.63,VWS V14.01,2013-06-06 22:27:00,
2013-06-06 18:32:00,72.1,71.2,29.81,SE,136,1.0,4.0,97,0.13,,---,0.64,VWS V14.01,2013-06-06 22:32:00,
2013-06-06 18:38:00,72.1,71.2,29.81,WSW,248,2.0,4.0,97,0.16,,---,0.67,VWS V14.01,2013-06-06 22:38:00,
2013-06-06 18:43:00,72.0,71.1,29.81,SSE,165,2.0,4.0,97,0.21,,---,0.72,VWS V14.01,2013-06-06 22:43:00,
2013-06-06 18:48:00,72.0,71.1,29.81,South,187,2.0,4.0,97,0.22,,---,0.73,VWS V14.01,2013-06-06 22:48:00,
2013-06-06 18:53:00,71.9,71.0,29.81,South,173,0.0,4.0,97,0.23,,---,0.74,VWS V14.01,2013-06-06 22:53:00,
2013-06-06 18:58:00,71.8,70.9,29.81,SSE,149,1.0,4.0,97,0.23,,---,0.74,VWS V14.01,2013-06-06 22:58:00,
2013-06-06 19:03:00,71.8,71.2,29.81,SSE,152,1.0,2.0,98,0.17,,---,0.74,VWS V14.01,2013-06-06 23:03:00,
2013-06-06 19:08:00,71.8,71.2,29.81,SE,144,0.0,2.0,98,0.17,,---,0.74,VWS V14.01,2013-06-06 23:08:00,
2013-06-06 19:13:00,71.7,70.8,29.81,SE,139,1.0,3.0,97,0.17,,---,0.74,VWS V14.01,2013-06-06 23:13:00,
2013-06-06 19:18:00,71.7,71.1,29.82,SSE,167,2.0,3.0,98,0.17,,---,0.74,VWS V14.01,2013-06-06 23:18:00,
2013-06-06 19:23:00,71.6,70.7,29.82,ESE,117,2.0,3.0,97,0.17,,---,0.74,VWS V14.01,2013-06-06 23:23:00,
2013-06-06 19:28:00,71.6,71.0,29.82,SSE,166,0.0,3.0,98,0.17,,---,0.74,VWS V14.01,2013-06-06 23:28:00,
2013-06-06 19:33:00,71.6,71.0,29.82,SE,136,1.0,2.0,98,0.10,,---,0.74,VWS V14.01,2013-06-06 23:33:00,
2013-06-06 19:39:00,71.5,70.9,29.82,South,184,1.0,2.0,98,0.10,,---,0.74,VWS V14.01,2013-06-06 23:39:00,
2013-06-06 19:44:00,71.5,70.9,29.82,ESE,120,1.0,2.0,98,0.10,,---,0.74,VWS V14.01,2013-06-06 23:44:00,
2013-06-06 19:49:00,71.4,70.8,29.82,SE,146,0.0,2.0,98,0.10,,---,0.74,VWS V14.01,2013-06-06 23:49:00,
2013-06-06 19:54:00,71.4,70.8,29.82,South,191,1.0,2.0,98,0.10,,---,0.74,VWS V14.01,2013-06-06 23:54:00,
2013-06-06 19:59:00,71.3,70.7,29.82,SSE,148,1.0,2.0,98,0.10,,---,0.74,VWS V14.01,2013-06-06 23:59:00,
2013-06-06 20:04:00,71.3,70.7,29.82,SSE,148,1.0,3.0,98,0.00,,---,0.74,VWS V14.01,2013-06-07 00:04:00,
2013-06-06 20:09:00,71.2,70.6,29.82,SSE,148,1.0,3.0,98,0.00,,---,0.74,VWS V14.01,2013-06-07 00:09:00,
2013-06-06 20:14:00,71.2,70.6,29.82,SE,142,2.0,3.0,98,0.00,,---,0.74,VWS V14.01,2013-06-07 00:14:00,
2013-06-06 20:19:00,71.1,70.5,29.82,SW,220,1.0,3.0,98,0.00,,---,0.74,VWS V14.01,2013-06-07 00:19:00,
2013-06-06 20:24:00,71.1,70.5,29.82,SE,142,1.0,3.0,98,0.00,,---,0.74,VWS V14.01,2013-06-07 00:24:00,
2013-06-06 20:29:00,71.1,70.5,29.82,ESE,113,2.0,3.0,98,0.00,,---,0.74,VWS V14.01,2013-06-07 00:29:00,
2013-06-06 20:34:00,70.9,70.3,29.82,South,183,0.0,2.0,98,0.00,,---,0.74,VWS V14.01,2013-06-07 00:34:00,
2013-06-06 20:39:00,70.8,69.9,29.82,SW,217,0.0,2.0,97,0.00,,---,0.74,VWS V14.01,2013-06-07 00:39:00,
2013-06-06 20:45:00,70.7,69.8,29.82,South,188,1.0,2.0,97,0.00,,---,0.74,VWS V14.01,2013-06-07 00:45:00,
2013-06-06 20:50:00,70.6,69.7,29.82,SE,135,1.0,2.0,97,0.00,,---,0.74,VWS V14.01,2013-06-07 00:50:00,
2013-06-06 20:55:00,70.5,69.6,29.82,SSE,162,1.0,3.0,97,0.00,,---,0.74,VWS V14.01,2013-06-07 00:55:00,
2013-06-06 21:00:00,70.4,69.5,29.83,SE,145,1.0,3.0,97,0.00,,---,0.74,VWS V14.01,2013-06-07 01:00:00,
2013-06-06 21:05:00,70.3,69.4,29.83,South,183,0.0,2.0,97,0.00,,---,0.74,VWS V14.01,2013-06-07 01:05:00,
2013-06-06 21:10:00,70.2,69.3,29.83,South,171,0.0,2.0,97,0.00,,---,0.74,VWS V14.01,2013-06-07 01:10:00,
2013-06-06 21:15:00,70.2,69.6,29.83,SW,226,0.0,2.0,98,0.00,,---,0.74,VWS V14.01,2013-06-07 01:15:00,
2013-06-06 21:20:00,70.2,69.6,29.83,SSW,210,1.0,2.0,98,0.01,,---,0.75,VWS V14.01,2013-06-07 01:20:00,
2013-06-06 21:25:00,70.2,69.6,29.83,SSW,197,0.0,2.0,98,0.01,,---,0.75,VWS V14.01,2013-06-07 01:25:00,
2013-06-06 21:30:00,70.2,69.6,29.83,SSW,197,0.0,2.0,98,0.01,,---,0.75,VWS V14.01,2013-06-07 01:30:00,
2013-06-06 21:35:00,70.2,69.6,29.83,North,352,0.0,2.0,98,0.01,,---,0.75,VWS V14.01,2013-06-07 01:35:00,
2013-06-06 21:40:00,70.2,69.6,29.84,North,351,0.0,2.0,98,0.02,,---,0.76,VWS V14.01,2013-06-07 01:40:00,
2013-06-06 21:45:00,70.2,69.6,29.84,SW,221,0.0,2.0,98,0.02,,---,0.76,VWS V14.01,2013-06-07 01:45:00,
2013-06-06 21:50:00,70.2,69.6,29.84,SSE,160,2.0,2.0,98,0.02,,---,0.76,VWS V14.01,2013-06-07 01:50:00,
2013-06-06 21:55:00,70.1,69.5,29.84,ESE,104,0.0,2.0,98,0.03,,---,0.77,VWS V14.01,2013-06-07 01:55:00,
2013-06-06 22:01:00,70.1,69.5,29.84,NE,47,0.0,2.0,98,0.04,,---,0.78,VWS V14.01,2013-06-07 02:01:00,
2013-06-06 22:06:00,70.0,69.4,29.84,SSE,152,0.0,1.0,98,0.05,,---,0.79,VWS V14.01,2013-06-07 02:06:00,
2013-06-06 22:11:00,69.9,69.3,29.84,SSE,152,0.0,1.0,98,0.06,,---,0.80,VWS V14.01,2013-06-07 02:11:00,
2013-06-06 22:16:00,69.9,69.3,29.84,SSE,152,0.0,1.0,98,0.06,,---,0.80,VWS V14.01,2013-06-07 02:16:00,
2013-06-06 22:21:00,69.8,69.2,29.84,SSE,152,0.0,1.0,98,0.06,,---,0.80,VWS V14.01,2013-06-07 02:21:00,
2013-06-06 22:26:00,69.8,69.2,29.85,SSE,152,0.0,1.0,98,0.06,,---,0.80,VWS V14.01,2013-06-07 02:26:00,
2013-06-06 22:31:00,69.8,69.2,29.84,SSE,152,0.0,0.0,98,0.05,,---,0.80,VWS V14.01,2013-06-07 02:31:00,
2013-06-06 22:36:00,69.8,69.2,29.84,SSE,153,0.0,0.0,98,0.05,,---,0.80,VWS V14.01,2013-06-07 02:36:00,
2013-06-06 22:41:00,69.8,69.2,29.84,SSE,152,0.0,0.0,98,0.05,,---,0.80,VWS V14.01,2013-06-07 02:41:00,
2013-06-06 22:46:00,69.8,69.2,29.84,SSE,152,0.0,0.0,98,0.05,,---,0.80,VWS V14.01,2013-06-07 02:46:00,
2013-06-06 22:52:00,69.8,69.2,29.84,SSE,154,0.0,0.0,98,0.05,,---,0.80,VWS V14.01,2013-06-07 02:52:00,
2013-06-06 22:57:00,69.8,69.2,29.84,SSE,153,0.0,0.0,98,0.05,,---,0.80,VWS V14.01,2013-06-07 02:57:00,
2013-06-06 23:02:00,69.7,69.1,29.84,SSE,153,0.0,0.0,98,0.02,,---,0.80,VWS V14.01,2013-06-07 03:02:00,
2013-06-06 23:07:00,69.7,69.1,29.84,SSE,153,0.0,0.0,98,0.02,,---,0.80,VWS V14.01,2013-06-07 03:07:00,
2013-06-06 23:12:00,69.7,69.1,29.84,SSE,152,0.0,0.0,98,0.02,,---,0.80,VWS V14.01,2013-06-07 03:12:00,
2013-06-06 23:17:00,69.7,69.1,29.84,SSE,152,0.0,0.0,98,0.02,,---,0.80,VWS V14.01,2013-06-07 03:17:00,
2013-06-06 23:22:00,69.6,69.0,29.84,SSE,152,0.0,0.0,98,0.02,,---,0.80,VWS V14.01,2013-06-07 03:22:00,
2013-06-06 23:27:00,69.6,69.0,29.84,SSE,152,0.0,0.0,98,0.02,,---,0.80,VWS V14.01,2013-06-07 03:27:00,
2013-06-06 23:32:00,69.6,69.0,29.84,SSE,152,0.0,0.0,98,0.00,,---,0.80,VWS V14.01,2013-06-07 03:32:00,
2013-06-06 23:37:00,69.6,69.0,29.84,SSE,152,0.0,0.0,98,0.00,,---,0.80,VWS V14.01,2013-06-07 03:37:00,
2013-06-06 23:43:00,69.6,69.0,29.84,SSE,154,0.0,0.0,98,0.00,,---,0.80,VWS V14.01,2013-06-07 03:43:00,
2013-06-06 23:48:00,69.6,69.0,29.83,SSE,152,0.0,0.0,98,0.00,,---,0.80,VWS V14.01,2013-06-07 03:48:00,
2013-06-06 23:53:00,69.6,69.0,29.83,SSE,152,0.0,0.0,98,0.01,,---,0.81,VWS V14.01,2013-06-07 03:53:00,
2013-06-06 23:58:00,69.5,68.9,29.83,SSE,152,0.0,0.0,98,0.01,,---,0.81,VWS V14.01,2013-06-07 03:58:00,